Content
SEND FEEDBACK

Daily
Averages
Monthly
Summary
United States of America

POTTS JUNCTION, GUAM


Home > North America > United States > Guam
Elevation: 360 feet     Latitude: 13 33N     Longitude: 144 50E

WEATHER
 
SELECT A DAY
Number of Records: 213,030;   Date Range: 1/1/95 - 9/28/14
 
SHARE

PRINT THIS DATA

[ ← Previous Day ]
WEATHER ALMANAC - FEBRUARY 11, 2013
[ Next Day → ]
[ °C ]   °F
Weather ElementAverageHighLow
Temperature78.5 °F84 °F (12:54 pm)75 °F (1:54 am)
Dewpoint71.9 °F75 °F (6:54 pm)66.9 °F (10:54 am)
Humidity80.5 %94 % (11:54 pm)60 % (10:54 am)
Barometer29.90 in29.95 in (8:54 am)29.86 in (2:54 pm)
Wind Speed14.2 mph21.9 mph (10:54 am)
Wind Gust28.8 mph (3:14 pm)
Weather ElementAverage
Visibility9.9 mi
Wind DirectionENE (67.4 °)

Weather ElementTotal
Precipitation0.03 in
Cooling Degree Days14.5 (Base 65)
Growing Degree Days29.5 (Base 50)
Averaged from 27 records on February 11, 2013
WEATHER CONDITIONS BREAKOUT
WIND DIRECTION BREAKOUT
WEATHER BY HOUR - FEBRUARY 11, 2013
[ °C ]   °F
Local TimeTemperatureDewpointHumidityBarometerVisibilityWind DirectionWind SpeedGust SpeedPrecipitationEventsConditions
1:54 AM75.0 °F72.0 °F90 %29.88 in10.0 miENE (70°)10.4 mph0.03 inOvercast
2:54 AM75.9 °F72.0 °F87 %29.88 in10.0 miENE (70°)10.4 mph0.00 inPartly Cloudy
3:54 AM75.0 °F71.1 °F87 %29.88 in10.0 miEast (80°)8.1 mphClear
4:54 AM75.0 °F69.1 °F82 %29.88 in10.0 miEast (80°)9.2 mphPartly Cloudy
5:54 AM75.0 °F69.1 °F82 %29.89 in10.0 miEast (80°)10.4 mphClear
6:54 AM75.0 °F70.0 °F84 %29.91 in10.0 miENE (70°)9.2 mphClear
7:54 AM75.9 °F71.1 °F85 %29.93 in10.0 miNE (50°)8.1 mphClear
8:54 AM79.0 °F72.0 °F79 %29.95 in10.0 miENE (60°)13.8 mphPartly Cloudy
9:54 AM80.1 °F70.0 °F71 %29.95 in10.0 miENE (60°)13.8 mphMostly Cloudy
10:54 AM82.0 °F66.9 °F60 %29.94 in10.0 miNE (50°)21.9 mphOvercast
11:54 AM80.1 °F73.0 °F79 %29.92 in10.0 miENE (70°)17.3 mph21.9 mph0.00 inMostly Cloudy
12:54 PM84.0 °F70.0 °F63 %29.89 in10.0 miENE (70°)20.7 mph27.6 mphMostly Cloudy
1:54 PM81.0 °F73.0 °F77 %29.88 in10.0 miENE (60°)16.1 mph0.00 inMostly Cloudy
2:54 PM82.0 °F73.0 °F74 %29.86 in10.0 miENE (60°)19.6 mph27.6 mph0.00 inMostly Cloudy
3:14 PM82.4 °F71.6 °F70 %29.88 in10.0 miENE (60°)20.7 mph28.8 mphMostly Cloudy
3:47 PM80.6 °F73.4 °F79 %29.88 in10.0 miENE (60°)19.6 mph27.6 mphMostly Cloudy
3:54 PM80.1 °F72.0 °F76 %29.86 in10.0 miNE (50°)20.7 mph28.8 mphMostly Cloudy
4:27 PM78.8 °F71.6 °F78 %29.90 in10.0 miEast (90°)20.7 mph28.8 mphMostly Cloudy
4:40 PM77.0 °F71.6 °F83 %29.90 in10.0 miEast (80°)15.0 mphMostly Cloudy
4:54 PM79.0 °F71.1 °F77 %29.88 in10.0 miEast (80°)11.5 mphMostly Cloudy
5:54 PM80.1 °F73.0 °F79 %29.88 in10.0 miENE (70°)12.7 mph21.9 mphScattered Clouds
6:54 PM78.1 °F75.0 °F90 %29.89 in9.0 miENE (70°)12.7 mph0.00 inRainLight Rain
7:54 PM78.1 °F73.9 °F87 %29.91 in10.0 miENE (70°)12.7 mph0.00 inScattered Clouds
8:54 PM78.1 °F73.0 °F84 %29.92 in10.0 miENE (60°)12.7 mphPartly Cloudy
9:54 PM77.0 °F73.9 °F90 %29.94 in10.0 miENE (60°)10.4 mphScattered Clouds
10:54 PM78.1 °F73.9 °F87 %29.94 in9.0 miENE (70°)12.7 mphRainLight Rain
11:54 PM75.9 °F73.9 °F94 %29.94 in10.0 miENE (70°)12.7 mph0.00 inPartly Cloudy
Hourly data recorded from PGUM, located miles away from Potts Junction, Guam







STORIES FROM OUR PARTNERS